ソーホー彗星

323P/SOHO (2025)

English version
Home page
Updated on November 30, 2024

---------------------------------------------------------------------

・ プロフィール

・ 軌道要素

Epoch 2023 Sept. 13.0 TT = JDT 2460200.5                                        
T 2025 Mar. 14.31166 TT                                 Rudenko                 
q   0.0395988            (2000.0)            P               Q                  
n   0.23737658     Peri.  353.14147     +0.73658127     +0.67416253             
a   2.5833156      Node   324.27390     -0.61603366     +0.63555960             
e   0.9846713      Incl.    5.33986     -0.27919628     +0.37625639             
P   4.15                                                                        
>From 202 observations 1999 Dec. 12-2021 Mar. 26, mean residual 0".1.            

・ 星図

・ 光度変化

        H = 21.0  G = 0.15                [   ,-30]  (              〜2025年 2月12日)
        m1 = 24.0 + 5 logΔ + 13.0 log r  [-30, 21]  (2025年 2月12日〜2025年 4月 4日)
        H = 21.0  G = 0.15                [ 21,   ]  (2025年 4月 4日〜              )

---------------------------------------------------------------------

軌道要素はM.P.E.C. 2023-X256に掲載されたものです。
星図はステラナビゲータ Ver.11 (アストロアーツ) で作成したものです。
光度グラフはComet for Windowsで作成したものです。

---------------------------------------------------------------------

Copyright(C) Seiichi Yoshida (comet@aerith.net). All rights reserved.